Regional Weather Roundup
Issued by NWS

Home | Current Version | Previous Version | Graphics & Text | Print | Product List | Glossary On
Versions: 1 2 3 4 5 6 7 8 9 10 11 12 13 14 15 16 17 18 19 20 21 22 23 24 25 26 27 28 29 30 31 32 33 34 35 36 37 38 39 40 41 42 43 44 45 46 47 48 49 50
000
ASUS45 KSLC 312310
RWRUT

UTAH REGIONAL WEATHER ROUNDUP
NATIONAL WEATHER SERVICE SALT LAKE CITY UT
500 PM MDT THU JUL 31 2014

UTZ001>011-023>025-010000-

NORTHERN UTAH

CITY           SKY/WX    TMP DP  RH WIND       PRES   REMARKS
HILL AFB       PTSUNNY   84  52  32 NW9       30.16F
LOGAN          SUNNY     85  46  25 NW8       30.13F
OGDEN          PTSUNNY   85  50  29 W10       30.13F
PROVO AIRPORT  PTSUNNY   81  59  47 W7        30.14S
SALT LAKE CITY CLOUDY    84  52  33 NW9       30.11F
VERNAL         MOSUNNY   82  44  26 VRB5      30.15F
WENDOVER       CLOUDY    75  52  43 CALM      30.16F
HEBER CITY     DRIZZLE   77  52  41 W3        30.19S
WEST JORDAN    SUNNY     82  57  42 NW10      30.15S

$$

UTZ012>022-026-027-010000-

SOUTHERN UTAH

CITY           SKY/WX    TMP DP  RH WIND       PRES   REMARKS
BRYCE CANYON   CLOUDY    76  44  32 W10       30.32S
CEDAR CITY     PTSUNNY   84  44  24 SW6       30.16F
MILFORD        LGT RAIN  70  60  70 NW23G31   30.16R
MOAB/CYNLANDS  SUNNY     87  48  25 W8        30.05F
PRICE          PTSUNNY   86  42  21 VRB6      30.16F
ST GEORGE      MOCLDY   102  45  14 W13       29.91F HX  98
KANAB            N/A     93  43  17 SW16      30.10F

$$

REGIONAL REPORTS     COLORADO/ARIZONA

CITY           SKY/WX    TMP DP  RH WIND       PRES   REMARKS
CRAIG, CO      MOSUNNY   71  49  45 VRB3      30.21F
GRAND JUNCTION MOSUNNY   84  50  30 W10       30.07F
RIFLE          MOSUNNY   85  45  24 W13       30.11F
MONTROSE       MOSUNNY   83  52  34 W8        30.16F
CORTEZ         SUNNY     84  49  29 MISG      30.15F
PAGE, AZ       PTSUNNY   94  47  20 NE17      30.03S HX  90
GRAND CANYON   CLOUDY    79  38  22 SW22G30   30.27S
KINGMAN        PTSUNNY  100  43  14 SW17G25   29.99F HX  96
FLAGSTAFF      TSTM      57  53  86 NE5       30.40S

$$

REGIONAL REPORTS    NEVADA/IDAHO/WYOMING

CITY           SKY/WX    TMP DP  RH WIND       PRES   REMARKS
LAS VEGAS, NV  MOSUNNY  107  40  10 SW15      29.81F HX 101
ELY            PTSUNNY   77  46  33 N32G39    30.24F
ELKO           LGT RAIN  65  56  72 NE16      30.24R
POCATELLO, ID  MOSUNNY   89  44  20 N9        30.13F
BURLEY         CLOUDY    86  42  21 N5        30.09F
EVANSTON, WY   MOSUNNY   74  39  28 E6        30.32F
ROCK SPRINGS   MOSUNNY   79  35  20 N10       30.28

$$



USA.gov is the U.S. government's official web portal to all federal, state and local government web resources and services.